This is the latest recevied weather packets stored in our database for station/object KC9DRE. If no packets are shown the sender has not sent any weather packets the latest 10 day(s).
| Time | Temp. | Humidity | Pressure | Rain* | Wind** | Luminosity | Snow |
|---|---|---|---|---|---|---|---|
| 1778269113 | 23.89° C | 41% | 1011.9 hPa | 0 mm | - | 751 W/m² | - |
| 1778268810 | 23.89° C | 41% | 1012 hPa | 0 mm | - | 767 W/m² | - |
| 1778268506 | 23.89° C | 38% | 1012.1 hPa | 0 mm | - | 771 W/m² | - |
| 1778268203 | 23.33° C | 42% | 1012.2 hPa | 0 mm | - | 830 W/m² | - |
| 1778267901 | 23.89° C | 38% | 1012.3 hPa | 0 mm | - | 792 W/m² | - |
| 1778267598 | 23.33° C | 40% | 1012.4 hPa | 0 mm | - | 813 W/m² | - |
| 1778267295 | 23.33° C | 36% | 1012.2 hPa | 0 mm | - | 832 W/m² | - |
| 1778266991 | 22.78° C | 37% | 1012.4 hPa | 0 mm | - | 938 W/m² | - |
| 1778266687 | 22.78° C | 35% | 1012.5 hPa | 0 mm | - | 713 W/m² | - |
| 1778266386 | 22.78° C | 36% | 1012.8 hPa | 0 mm | - | 667 W/m² | - |
| 1778266082 | 23.33° C | 38% | 1012.7 hPa | 0 mm | - | 333 W/m² | - |
| 1778265779 | 23.33° C | 38% | 1012.6 hPa | 0 mm | - | 421 W/m² | - |
| 1778265476 | 22.78° C | 41% | 1012.7 hPa | 0 mm | - | 956 W/m² | - |
| 1778265173 | 23.33° C | 37% | 1012.7 hPa | 0 mm | - | 525 W/m² | - |
| 1778264869 | 23.33° C | 38% | 1012.7 hPa | 0 mm | - | 923 W/m² | - |
| 1778264565 | 23.33° C | 37% | 1012.8 hPa | 0 mm | - | 851 W/m² | - |
| 1778264261 | 22.78° C | 37% | 1012.6 hPa | 0 mm | - | 860 W/m² | - |
| 1778263958 | 22.78° C | 36% | 1012.6 hPa | 0 mm | - | 854 W/m² | - |
| 1778263655 | 23.33° C | 38% | 1012.8 hPa | 0 mm | - | 846 W/m² | - |
| 1778263352 | 22.78° C | 37% | 1012.7 hPa | 0 mm | - | 868 W/m² | - |
| 1778263048 | 22.78° C | 37% | 1012.4 hPa | 0 mm | - | 874 W/m² | - |
| 1778262745 | 22.78° C | 37% | 1012.5 hPa | 0 mm | - | 876 W/m² | - |
| 1778262443 | 22.78° C | 39% | 1012.9 hPa | 0 mm | - | 880 W/m² | - |
| 1778262140 | 22.78° C | 34% | 1012.9 hPa | 0 mm | - | 880 W/m² | - |
| 1778261836 | 22.78° C | 37% | 1013.2 hPa | 0 mm | - | 880 W/m² | - |
* Rain latest hour (hover to see other rain measurements)
** Current wind speed in m/s (hover to see current wind gust speed)